NWS Regional Weather Roundup - New England Area

000
ASUS41 KBOX 181010
RWRBOX

REGIONAL WEATHER ROUNDUP
NATIONAL WEATHER SERVICE BOSTON/NORTON MA
500 AM EST TUE DEC 18 2018

NOTE:  "FAIR" INDICATES FEW OR NO CLOUDS BELOW 12,000 FEET WITH NO
SIGNIFICANT WEATHER AND/OR OBSTRUCTIONS TO VISIBILITY.

MAZALL-181100-
EASTERN MASSACHUSETTS

CITY           SKY/WX    TMP DP  RH WIND       PRES   REMARKS
BOSTON         CLOUDY    26   9  48 NW30G41   29.68R WCI  10
BEVERLY        MOCLDY    25   8  48 NW20G38   29.67R WCI  11
LAWRENCE       MOCLDY    26   8  46 NW18G35   29.71R WCI  13
BEDFORD        CLOUDY    24   8  50 NW29G39   29.71R WCI   7
BLUE HILL        N/A     21  10  62 NW32G47   29.62R WCI   2
NORWOOD        FLURRIES  27   9  46 NW24G40   29.71R WCI  12
MARSHFIELD     FAIR      27  10  50 NW23G35   29.65R WCI  12
PLYMOUTH       CLOUDY    26  10  50 W26G39    29.65R WCI  10
TAUNTON        CLOUDY    28   8  43 NW16G36   29.68R WCI  16
NEW BEDFORD    CLOUDY    29  17  61 NW17G31   29.66R WCI  17
$$

MAZALL-181100-
CAPE COD AND THE ISLANDS

CITY           SKY/WX    TMP DP  RH WIND       PRES   REMARKS
FALMOUTH       NOT AVBL
HYANNIS        CLOUDY    30  14  51 NW22G36   29.59R WCI  17
CHATHAM        CLOUDY    30  17  58 NW18G32   29.60R WCI  18
PROVINCETOWN   MOCLDY    29  19  66 NW32G44   29.62R WCI  13
NANTUCKET      FLURRIES  33  18  53 W23G35    29.60R WCI  21
MARTHAS VNYRD  CLOUDY    31  16  54 NW23G37   29.63R WCI  18
$$

MAZALL-181100-
CENTRAL AND WESTERN MASSACHUSETTS

CITY           SKY/WX    TMP DP  RH WIND       PRES   REMARKS
WORCESTER      MOCLDY    20   9  62 W30G40    29.66R WCI   1
FITCHBURG      CLOUDY    22   8  55 NW21G30   29.74R WCI   6
ORANGE         CLOUDY    23   7  50 NW23G39   29.76R WCI   7
SPRINGFIELD    MOCLDY    24   7  49 NW18G26   29.80R WCI  10
WESTFIELD      FAIR      23   7  50 NW18G36   29.82R WCI   9
NORTH ADAMS    CLOUDY    20   9  62 W18G29    29.84R WCI   5
PITTSFIELD     FAIR      18   7  62 NW24G37   29.79R WCI   0
$$

RIZALL-181100-
RHODE ISLAND

CITY           SKY/WX    TMP DP  RH WIND       PRES   REMARKS
PROVIDENCE     CLOUDY    28  11  48 NW21G35   29.71R WCI  15
NEWPORT        FAIR      29  13  51 NW25G43   29.68R WCI  14
BLOCK ISLAND   FAIR      28  16  60 NW18G36   29.72R WCI  15
SMITHFIELD     CLOUDY    25  13  60 NW15G29   29.69R WCI  13
WESTERLY       FAIR      30  14  51 NW14G28   29.74R WCI  19
$$

CTZALL-181100-
CONNECTICUT

CITY           SKY/WX    TMP DP  RH WIND       PRES   REMARKS
BRADLEY INTL   FAIR      23   9  55 NW20G28   29.83R WCI   8
HARTFORD       FAIR      25   8  48 NW18G25   29.85R WCI  11
BRIDGEPORT     FAIR      29  14  53 N16       29.85R WCI  17
DANBURY        FAIR      27  13  55 NW13G23   29.85R WCI  16
GROTON         FAIR      27  11  51 NW30G40   29.76R WCI  11
NEW HAVEN      FAIR      28  13  53 NW10G32   29.85R WCI  19
CHESTER        FAIR      25   9  50 NW15G31   29.78R WCI  12
MERIDEN        MOCLDY    25  10  53 NW15      29.85R WCI  13
WILLIMANTIC    MOCLDY    25  12  58 NW17G35   29.78R WCI  12
OXFORD         MOCLDY    23  14  68 NW23G30   29.82R WCI   7
$$

MEZ002-015-021-024-NHZ003-005-008-011-012-014-VTZ005-008-181100-
NORTHERN NEW ENGLAND

CITY           SKY/WX    TMP DP  RH WIND       PRES   REMARKS
PORTLAND ME    CLOUDY    26  12  55 NW18G28   29.59R WCI  13
BANGOR ME      LGT SNOW  23  18  81 NW20G32   29.45R VSB 1   WCI   8
CONCORD NH     CLOUDY    21   8  57 NW23G41   29.71R WCI   5
MANCHESTER NH  CLOUDY    23   7  50 NW21G32   29.69R WCI   8
NASHUA NH      CLOUDY    23  10  57 NW24G39   29.73R WCI   7
PORTSMOUTH NH  MOCLDY    24   7  48 W20G35    29.63R WCI   9
JAFFREY NH     MOCLDY    20   8  60 NW8G26    29.71R WCI  10
KEENE NH       CLOUDY    21   8  57 N15G29    29.78R WCI   8
BURLINGTON VT  CLOUDY    20   9  62 NW25G36   29.91R WCI   2
MT. WASHINGTON DRFTSNOW  -9  -9 100 NW59G67     N/A  VSB 1/16WCI -46
$$

NYZ052-076-181100-
EASTERN NEW YORK

CITY           SKY/WX    TMP DP  RH WIND       PRES   REMARKS
ALBANY         FAIR      22   8  55 NW17G30   29.94R WCI   8
NEW YORK CITY  FAIR      35  17  47 NW24G36   29.88R WCI  23
$$

ANZALL-181100-
MARINE OBSERVATIONS

STATION/POSITION TIME  TEMP    WIND        PRES    VSBY  WAVE
                       AIR SEA DIR/SP/G                  HT/PER
                 (UTC) (F)     (DEG/KT/KT) (MB)    (MI)  (FT/S)
BOSTON BUOY      0950   29 45  300/ 31/ 39 1002.8R         7/ 6
BUZZARDS BAY     0900   34     300/ 41/ 46 1003.5R
NANTUCKET SOUND  0950   32 40  320/ 29/ 39 1002.5R         4/ 4
MASS BAY-STELLWA 0904   29 44  320/ 37/ 43 1001.3R  1 7/8
ISLE OF SHOALS   0900   26     310/ 39/ 45 1001.3R
S OF BLOCK IS    0943      49                N/A          10/ 7
$$

......................KEY.........................
  SKY/WX - SKY CONDITION/PRESENT WEATHER
  TMP    - TEMPERATURE IN FAHRENHEIT
  DWPT   - DEWPOINT IN FAHRENHEIT
  RH     - RELATIVE HUMIDITY IN PERCENT
  WIND   - DIRECTION AND SPEED IN MPH
  PRES   - MEAN SEA LEVEL PRESSURE IN INCHES OF HG
  WCI    - WIND CHILL INDEX
  VSB    - VISIBILITY IN MILES
  HX     - HEAT INDEX
  TC     - TEMPERATURE IN CELSIUS
  VRB    - VARIABLE WIND DIRECTION
  N/A    - NOT AVAILABLE

NWS BOX Regional Weather Roundup - New England Area